Weather Roundup
Issued by NWS

Home | Current Version | Previous Version | Graphics & Text | Print | Product List | Glossary Off
Versions: 1 2 3 4 5 6 7 8 9 10 11 12 13 14 15 16 17 18 19 20 21 22 23 24 25 26 27 28 29 30 31 32 33 34 35 36 37 38 39 40 41 42 43 44 45 46 47 48 49 50

931
NZUS93 KARX 190859
HRRWXR

CURRENT HOURLY OBSERVATIONS ACROSS
MUCH OF THE UPPER MISSISSIPPI VALLEY
NATIONAL WEATHER SERVICE LA CROSSE WI
400 AM CDT THU APR 19 2018


...SOUTHEAST MINNESOTA...


CITY           SKY/WX    TMP DP  RH WIND       PRES   REMARKS
ROCHESTER      FAIR      20  18  92 NW10      30.27R WCI   9
ROCHESTER/MAYO FAIR      28  21  77 NW5       30.28R WCI  22
WINONA         FAIR      27  27 100 NW5       30.27R WCI  21
AUSTIN         FAIR      21  19  93 N3        30.28R
ALBERT LEA     FAIR      21  18  86 N5        30.28R WCI  15
DODGE CENTER   FAIR      21  18  86 NW6       30.27S WCI  14
PRESTON        FAIR      24  20  83 NW8       30.26R WCI  16
OWATONNA       FAIR      18  16  93 CALM      30.28R
FARIBAULT      NOT AVBL
$$

...ELSEWHERE IN MINNESOTA...


CITY           SKY/WX    TMP DP  RH WIND       PRES   REMARKS
MINNEAPOLIS    FAIR      26  17  68 NW5       30.31R WCI  20
INTNL FALLS    FAIR      22  18  85 CALM      30.32R
DULUTH         FAIR      23  11  60 NW6       30.28R WCI  16
RED WING       FAIR      27  16  63 CALM      30.30R
REDWOOD FALLS  PTCLDY    33  16  49 N5        30.34R WCI  29
MANKATO        FAIR      23  19  85 NW3       30.31R
WORTHINGTON    CLOUDY    23  17  78 N14       30.33R WCI  11
FAIRMONT       PTCLDY    24  19  81 N9        30.32R WCI  14
$$

...SOUTHWEST WISCONSIN...


CITY           SKY/WX    TMP DP  RH WIND       PRES   REMARKS
LA CROSSE      FAIR      24  23  96 N6        30.25R FOG     WCI  17
PRAIRIE DU CHI FAIR      27  26  96 CALM      30.22R
BOSCOBEL       FAIR      26  23  88 CALM      30.23R
LONE ROCK      NOT AVBL
PLATTEVILLE    FAIR      30  29  98 NW8       30.17R WCI  22
FORT MC COY    FAIR      12  10  92 CALM      30.24R FOG
CAMP DOUGLAS   FAIR      20  19  97 W8        30.21R WCI  10
MAUSTON-NEW LI FAIR      24  21  87 W5        30.19R WCI  19
VIROQUA        FAIR      24  24 100 NW3       30.20R
WIS DELLS      FAIR      24  23  96 CALM      30.17R
$$

...ELSEWHERE IN WISCONSIN...


CITY           SKY/WX    TMP DP  RH WIND       PRES   REMARKS
MILWAUKEE      FAIR      32  25  75 NW8       30.10R WCI  25
MADISON        FAIR      26  23  88 N8        30.15R WCI  18
GREEN BAY      FAIR      32  20  61 N14       30.14R WCI  22
EAU CLAIRE     NOT AVBL
BLACK RVR FLS  FAIR      13  10  88 CALM      30.23R
MEDFORD        FAIR      27  13  57 N7        30.19R WCI  19
WAUSAU         FAIR      27  17  66 NW7       30.17R WCI  19
WIS RAPIDS     FAIR      27  14  58 NW6       30.20R WCI  20
MARSHFIELD     FAIR      30  15  53 N8        30.18R WCI  22
RICE LAKE      FAIR      27  15  59 CALM      30.28R
$$

...NORTHEAST IOWA...


CITY           SKY/WX    TMP DP  RH WIND       PRES   REMARKS
WATERLOO       FAIR      26  24  92 N14       30.25R WCI  14
DUBUQUE        MOCLDY    31  27  85 N6        30.18R WCI  25
DECORAH        FAIR      27  25  93 NW6       30.22R WCI  20
MASON CITY     CLOUDY    23  20  88 N10       30.28R WCI  12
CHARLES CITY   FAIR      25  25 100 N8        30.27R WCI  16
OELWEIN          N/A     25  25 100 N8        30.24R WCI  16
$$

...ELSEWHERE IN IOWA...


CITY           SKY/WX    TMP DP  RH WIND       PRES   REMARKS
DES MOINES     CLOUDY    32  29  88 NW6       30.27R WCI  26
IOWA CITY      MOCLDY    33  30  88 NW8       30.22R WCI  26
FORT DODGE     CLEAR     30  26  85 N5        30.29R WCI  25
MARSHALLTOWN   CLOUDY    31  29  92 NW13      30.24R WCI  21
CEDAR RAPIDS   FAIR      31  29  92 N7        30.20R WCI  24
$$

...NORTHERN ILLINOIS...


CITY           SKY/WX    TMP DP  RH WIND       PRES   REMARKS
CHICAGO-OHARE  MOCLDY    34  33  96 N10       30.07R WCI  26
CHICAGO-MIDWAY CLOUDY    36  34  92 N10       30.07R WCI  28
MOLINE         CLOUDY    34  31  88 NW9       30.18R WCI  27
ROCKFORD       FAIR      32  28  85 N13       30.14R WCI  22
PEORIA         CLOUDY    34  30  85 NW8       30.15R WCI  27
$$

NOTE: "FAIR" INDICATES FEW OR NO CLOUDS BELOW 12,000 FEET WITH NO
SIGNIFICANT WEATHER AND/OR OBSTRUCTIONS TO VISIBILITY. WIND
SPEEDS ARE IN MILES-PER-HOUR.




USA.gov is the U.S. government's official web portal to all federal, state and local government web resources and services.